Weather observations for the past three days for
Tahlequah, Tahlequah Municipal Airport
Imperial (Metric)
Date Time (cdt) Wind (mph) Vis. (mi.) Weather Sky Cond. Temperature (ºF) Relative Humidity Wind Chill (°F) Heat Index (°F) Pressure Precipitation (in)
Air Dwpt 6 hour altimeter (in) sea level (mb) 1 hr 3 hr 6 hr
Max. Min.
22 11:55 Calm 10.00 Overcast SCT031 BKN050 OVC065 84.2 68 58% 87 30.07 0.0
22 11:35 Calm 10.00 Mostly Cloudy SCT038 BKN050 BKN065 82.4 68 62% 85 30.07 0.0
22 11:15 Calm 10.00 Mostly Cloudy SCT036 SCT046 BKN065 82.4 68 62% 85 30.07 0.0
22 10:55 Calm 10.00 Partly Cloudy SCT019 SCT027 SCT065 78.8 68 70% 81 30.08 0.0
22 10:35 Calm 10.00 Partly Cloudy SCT019 SCT025 SCT030 78.8 68 70% 81 30.08 0.0
22 10:15 Calm 10.00 Partly Cloudy SCT016 82.4 68 62% 85 30.07 0.0
22 09:55 Calm 10.00 Partly Cloudy SCT016 SCT047 78.8 68 70% 81 30.08 0.0
22 09:35 Calm 10.00 Partly Cloudy SCT047 77 68 74% 79 30.07 0.0
22 09:15 Calm 10.00 Partly Cloudy SCT025 SCT033 75.2 68 78% 76 30.08 0.0
22 08:55 Calm 10.00 Mostly Cloudy SCT025 BKN033 73.4 68 83% 30.08 0.0 0.01
22 08:35 Calm 10.00 Mostly Cloudy BKN033 BKN038 BKN044 71.6 69.8 94% 30.07 0.0
22 08:15 Calm 10.00 Overcast SCT031 OVC040 69.8 69.8 100% 30.06 0.0
22 07:55 Calm 10.00 Overcast SCT023 OVC029 68 68 100% 30.06 0.0
22 07:35 Calm 10.00 Overcast SCT023 BKN060 OVC070 68 68 100% 30.06 0.0
22 07:15 Calm 10.00 Overcast OVC060 66.2 66.2 100% 30.06 0.0
22 06:55 Calm 10.00 Mostly Cloudy SCT028 SCT038 BKN060 66.2 66.2 100% 30.05 0.0
22 06:35 Calm 10.00 Mostly Cloudy BKN028 BKN034 64.4 64.4 100% 30.05 0.0
22 06:15 Calm 10.00 Mostly Cloudy BKN028 64.4 64.4 100% 30.05 0.0
22 05:55 Calm 10.00 Fair CLR 64.4 64.4 100% 30.05 0.0
22 05:35 Calm 10.00 Fair CLR 64.4 64.4 100% 30.04 0.0
22 05:15 Calm 10.00 Mostly Cloudy BKN028 64.4 64.4 100% 30.04 0.0
22 04:55 Calm 10.00 Overcast OVC026 66.2 66.2 100% 30.03 0.0
22 04:35 Calm 10.00 Overcast OVC024 64.4 64.4 100% 30.03 0.0
22 04:15 Calm 10.00 Mostly Cloudy BKN022 64.4 64.4 100% 30.04 0.0
22 03:55 Calm 10.00 Partly Cloudy SCT022 64.4 64.4 100% 30.03 0.0
22 03:35 Calm 10.00 Fair CLR 64.4 64.4 100% 30.04 0.0
22 03:15 Calm 10.00 Fair CLR 64.4 64.4 100% 30.04 0.0
22 02:55 Calm 10.00 Fair CLR 66.2 66.2 100% 30.04 0.0 0.01
22 02:35 Calm 10.00 Fair CLR 66.2 66.2 100% 30.04 0.0 0.01
22 02:15 Calm 7.00 Fair CLR 66.2 66.2 100% 30.05 0.0
22 01:55 Calm 10.00 Fair CLR 66.2 66.2 100% 30.06 0.0
22 01:35 Calm 10.00 Partly Cloudy SCT110 66.2 66.2 100% 30.06 0.0
22 01:15 Calm 10.00 Partly Cloudy SCT110 68 68 100% 30.07 0.0
22 00:55 Calm 10.00 Partly Cloudy SCT110 68 68 100% 30.07 0.0
22 00:35 Calm 10.00 Partly Cloudy SCT110 68 68 100% 30.07 0.0
22 00:15 Calm 10.00 Partly Cloudy SCT080 SCT110 68 68 100% 30.08 0.0
21 23:55 Calm 10.00 Mostly Cloudy SCT036 SCT050 BKN080 69.8 68 94% 30.07 0.0
21 23:35 E 3 10.00 Overcast BKN034 BKN050 OVC070 69.8 69.8 100% 30.07 0.0
21 23:15 NE 3 10.00 Mostly Cloudy SCT013 SCT019 BKN030 69.8 69.8 100% 30.09 0.0
21 22:55 Calm 10.00 Mostly Cloudy SCT011 BKN018 BKN030 69.8 69.8 100% 30.08 0.0 0.01
21 22:35 Calm 10.00 Overcast SCT009 BKN018 OVC033 69.8 69.8 100% 30.08 0.0
21 22:15 Calm 10.00 Overcast SCT027 BKN034 OVC055 69.8 69.8 100% 30.07 0.0
21 21:55 Calm 10.00 Overcast SCT027 SCT034 OVC040 69.8 69.8 100% 30.07 0.0 0.01
21 21:35 Calm 10.00 Mostly Cloudy BKN038 69.8 69.8 100% 30.06 0.0 0.01
21 21:15 Calm 10.00 Partly Cloudy SCT040 69.8 69.8 100% 30.05 0.0 0.01
21 20:55 Calm 10.00 Partly Cloudy SCT070 69.8 69.8 100% 30.05 0.0 0.01
21 20:35 Calm 10.00 Partly Cloudy SCT070 71.6 69.8 94% 30.05 0.0 0.01
21 20:15 Calm 10.00 Partly Cloudy SCT060 71.6 69.8 94% 30.05 0.0 0.01
21 19:55 Calm 10.00 Partly Cloudy SCT060 71.6 69.8 94% 30.04 0.0 0.01
21 19:35 Calm 10.00 Fair CLR 73.4 69.8 89% 30.04 0.0 0.01
21 19:15 Calm 10.00 Fair CLR 71.6 69.8 94% 30.04 0.0
21 18:55 Calm 10.00 Fair CLR 71.6 69.8 94% 30.04 0.0 0.02
21 18:35 Calm 10.00 Partly Cloudy SCT007 SCT031 71.6 71.6 100% 30.03 0.0 0.01
21 18:15 Calm 10.00 Partly Cloudy SCT007 SCT031 SCT043 71.6 71.6 100% 30.03 0.0 0.01
21 17:55 Calm 10.00 Mostly Cloudy BKN033 BKN042 BKN050 71.6 71.6 100% 30.03 0.0 0.01
21 17:35 E 5 10.00 Overcast BKN031 BKN038 OVC048 71.6 71.6 100% 30.04 0.0 0.01
21 17:15 E 5 10.00 Overcast SCT025 BKN032 OVC048 69.8 69.8 100% 30.04 0.0
21 16:55 Calm 2.00 Fog/Mist SCT012 BKN025 OVC031 69.8 69.8 100% 30.05 0.0 0.02
21 16:35 Calm 4.00 Fog/Mist SCT021 BKN026 OVC042 71.6 68 88% 30.05 0.0 0.01
21 16:15 N 10 10.00 Overcast SCT016 BKN021 OVC027 77 68 74% 79 30.04 0.0
21 15:55 Calm 10.00 Overcast SCT025 BKN031 OVC050 80.6 68 66% 83 30.04 0.0 0.03
21 15:35 Calm 10.00 Mostly Cloudy SCT024 SCT030 BKN043 80.6 68 66% 83 30.04 0.0 0.02
21 15:15 SW 6 10.00 Overcast SCT022 BKN028 OVC060 80.6 68 66% 83 30.05 0.0 0.01
21 14:55 Calm 10.00 Mostly Cloudy SCT025 SCT032 BKN050 80.6 68 66% 83 30.05 0.0
21 14:35 Calm 10.00 Partly Cloudy SCT040 SCT070 SCT085 80.6 68 66% 83 30.06 0.0
21 14:15 S 5 10.00 Mostly Cloudy SCT040 BKN060 BKN070 80.6 69.8 70% 84 30.06 0.0
21 13:55 S 3 10.00 Mostly Cloudy SCT021 SCT027 BKN047 77 68 74% 79 30.07 0.0 0.01
21 13:35 S 5 10.00 Overcast SCT017 BKN021 OVC036 77 68 74% 79 30.08 0.0 0.01
21 13:15 S 3 10.00 Mostly Cloudy SCT018 BKN027 BKN035 77 68 74% 79 30.09 0.0 0.01
21 12:55 S 5 10.00 Overcast BKN018 BKN027 OVC034 77 68 74% 79 30.09 0.0
21 12:35 Calm 10.00 Overcast BKN014 OVC022 77 68 74% 79 30.09 0.0
21 12:15 Calm 10.00 Overcast BKN014 OVC021 73.4 69.8 89% 30.09 0.0
21 11:55 Calm 10.00 Overcast BKN012 BKN026 OVC041 75.2 68 78% 76 30.1 0.0 0.01
21 11:35 Calm 10.00 Overcast BKN012 BKN026 OVC065 75.2 69.8 83% 75 30.1 0.0 0.01
21 11:15 Calm 10.00 Overcast BKN012 BKN048 OVC060 73.4 68 83% 30.1 0.0
21 10:55 Calm 10.00 Mostly Cloudy SCT008 SCT018 BKN048 71.6 68 88% 30.11 0.0
21 10:35 Calm 10.00 Mostly Cloudy SCT017 SCT034 BKN040 71.6 69.8 94% 30.11 0.0
21 10:15 Calm 10.00 Mostly Cloudy SCT019 SCT035 BKN045 69.8 69.8 100% 30.11 0.0
21 09:55 SE 5 10.00 Mostly Cloudy SCT019 SCT036 BKN042 69.8 69.8 100% 30.1 0.0
21 09:35 SE 3 10.00 Mostly Cloudy SCT019 SCT034 BKN100 68 68 100% 30.1 0.0
21 09:15 Calm 10.00 Overcast SCT004 BKN021 OVC100 68 68 100% 30.1 0.0
21 08:55 Calm 10.00 Overcast BKN004 BKN022 OVC090 66.2 66.2 100% 30.11 0.0 0.01
21 08:35 Calm 10.00 Mostly Cloudy SCT004 BKN090 66.2 66.2 100% 30.1 0.0
21 08:15 SE 6 10.00 Partly Cloudy SCT033 SCT041 SCT047 64.4 64.4 100% 30.09 0.0
21 07:55 Calm 5.00 Fog/Mist SCT033 BKN045 BKN055 66.2 66.2 100% 30.09 0.0
21 07:35 Calm 4.00 Fog/Mist SCT004 BKN044 OVC050 64.4 64.4 100% 30.08 0.0
21 07:15 Calm 3.00 Fog/Mist SCT003 BKN042 OVC050 66.2 66.2 100% 30.09 0.0
21 06:55 Calm 2.50 Fog/Mist SCT018 BKN042 OVC050 66.2 66.2 100% 30.09 0.0
21 06:35 Calm 1.75 Fog/Mist BKN019 OVC024 66.2 66.2 100% 30.09 0.0
21 06:15 Calm 2.50 Fog/Mist SCT023 BKN031 OVC045 68 68 100% 30.08 0.0
21 05:35 NE 3 1.75 Fog/Mist SCT009 BKN032 OVC040 68 64.4 88% 30.09 0.0
21 05:15 NW 10 10.00 Overcast SCT030 OVC042 69.8 64.4 83% 30.09 0.0
21 04:55 N 9 10.00 Overcast OVC045 71.6 62.6 73% 30.07 0.0
21 04:35 N 3 10.00 Overcast OVC045 71.6 62.6 73% 30.05 0.0
21 04:15 Calm 10.00 Mostly Cloudy SCT045 SCT055 BKN110 71.6 62.6 73% 30.05 0.0
21 03:55 Calm 10.00 Mostly Cloudy SCT055 BKN110 71.6 62.6 73% 30.04 0.0
21 03:35 SE 3 10.00 Mostly Cloudy SCT049 BKN110 71.6 62.6 73% 30.04 0.0
21 03:15 SE 3 10.00 Mostly Cloudy SCT049 BKN055 BKN110 71.6 62.6 73% 30.03 0.0
21 02:55 Calm 10.00 Partly Cloudy SCT047 SCT055 71.6 62.6 73% 30.04 0.0
21 02:35 SE 3 10.00 Partly Cloudy SCT120 71.6 64.4 78% 30.04 0.0
21 02:15 SE 6 10.00 Mostly Cloudy SCT070 SCT100 BKN120 73.4 64.4 74% 30.05 0.0
21 01:55 SE 5 10.00 Overcast SCT070 OVC110 73.4 64.4 74% 30.05 0.0
21 01:35 SE 6 10.00 Overcast SCT070 OVC110 73.4 64.4 74% 30.06 0.0
21 01:15 SE 5 10.00 Overcast SCT070 BKN090 OVC110 71.6 64.4 78% 30.06 0.0
21 00:55 Calm 10.00 Mostly Cloudy BKN110 71.6 64.4 78% 30.06 0.0
21 00:35 Calm 10.00 Partly Cloudy SCT110 71.6 64.4 78% 30.06 0.0
21 00:15 Calm 10.00 Mostly Cloudy BKN110 71.6 64.4 78% 30.06 0.0
20 23:55 Calm 7.00 Partly Cloudy SCT075 SCT095 SCT110 69.8 64.4 83% 30.06 0.0
20 23:35 Calm 10.00 Mostly Cloudy BKN075 BKN120 69.8 66.2 88% 30.07 0.0
20 23:15 Calm 10.00 Partly Cloudy SCT075 SCT120 71.6 66.2 83% 30.06 0.0
20 22:55 Calm 10.00 Mostly Cloudy BKN075 BKN120 71.6 66.2 83% 30.06 0.0
20 22:35 Calm 10.00 Partly Cloudy SCT085 71.6 66.2 83% 30.07 0.0
20 22:15 Calm 10.00 Partly Cloudy SCT095 73.4 66.2 78% 30.07 0.0
20 21:55 Calm 10.00 Fair CLR 73.4 64.4 74% 30.06 0.0
20 21:35 Calm 10.00 Partly Cloudy SCT080 75.2 64.4 69% 77 30.05 0.0
20 21:15 Calm 10.00 Fair CLR 77 64.4 65% 79 30.04 0.0
20 20:55 Calm 10.00 Fair CLR 77 64.4 65% 79 30.04 0.0
20 20:35 Calm 10.00 Fair CLR 78.8 64.4 61% 81 30.04 0.0
20 20:15 Calm 10.00 Fair CLR 80.6 64.4 58% 82 30.04 0.0
20 19:55 Calm 10.00 Partly Cloudy SCT085 80.6 62.6 54% 82 30.04 0.0
20 19:35 Calm 10.00 Partly Cloudy SCT046 SCT055 82.4 62.6 51% 83 30.04 0.0
20 19:15 Calm 10.00 Overcast OVC048 86 64.4 49% 87 30.03 0.0
20 18:55 Calm 10.00 Mostly Cloudy BKN046 BKN050 87.8 64.4 46% 89 30.03 0.0
20 18:35 Calm 10.00 Partly Cloudy SCT046 89.6 64.4 43% 91 30.04 0.0
20 18:15 Calm 10.00 Fair CLR 89.6 64.4 43% 91 30.04 0.0
20 17:55 Calm 10.00 Fair CLR 87.8 64.4 46% 89 30.04 0.0
20 17:35 Calm 10.00 Fair CLR 86 64.4 49% 87 30.04 0.0
20 17:15 W 6 10.00 Fair CLR 87.8 64.4 46% 89 30.04 0.0
20 16:55 SW 3 10.00 Fair CLR 87.8 64.4 46% 89 30.05 0.0
20 16:35 SW 5 10.00 Fair CLR 84.2 64.4 51% 86 30.05 0.0
20 16:15 SW 3 10.00 Fair CLR 82.4 64.4 55% 84 30.05 0.0
20 15:55 W 3 10.00 Fair CLR 82.4 64.4 55% 84 30.05 0.0
20 15:35 Calm 10.00 Fair CLR 82.4 64.4 55% 84 30.05 0.0
20 15:15 Calm 10.00 Fair CLR 84.2 64.4 51% 86 30.06 0.0
20 14:55 Calm 10.00 Fair CLR 86 64.4 49% 87 30.06 0.0
20 14:35 Calm 10.00 Fair CLR 86 62.6 46% 87 30.06 0.0
20 14:15 Calm 10.00 Fair CLR 86 62.6 46% 87 30.06 0.0
20 13:55 SW 3 10.00 Fair CLR 87.8 64.4 46% 89 30.06 0.0
20 13:35 Calm 10.00 Fair CLR 86 62.6 46% 87 30.07 0.0
20 13:15 Calm 10.00 Fair CLR 84.2 62.6 48% 85 30.09 0.0
20 12:55 Calm 10.00 Partly Cloudy SCT055 82.4 62.6 51% 83 30.1 0.0
20 12:35 SW 3 10.00 Fair CLR 84.2 62.6 48% 85 30.11 0.0
20 12:15 SW 6 10.00 Fair CLR 86 62.6 46% 87 30.11 0.0
20 11:55 SW 3 10.00 Fair CLR 84.2 62.6 48% 85 30.12 0.0
20 11:35 Calm 10.00 Fair CLR 82.4 62.6 51% 83 30.12 0.0
20 11:15 SE 3 10.00 Fair CLR 82.4 62.6 51% 83 30.13 0.0
20 10:55 S 5 10.00 Fair CLR 80.6 60.8 51% 81 30.13 0.0
20 10:35 S 6 10.00 Partly Cloudy SCT055 SCT120 80.6 60.8 51% 81 30.12 0.0
20 10:15 Calm 10.00 Partly Cloudy SCT055 SCT120 78.8 60.8 54% 80 30.13 0.0
20 09:55 S 3 10.00 Partly Cloudy SCT049 77 60.8 57% 79 30.13 0.0
20 09:35 S 3 10.00 Mostly Cloudy BKN049 75.2 60.8 61% 77 30.12 0.0
20 09:15 SE 3 10.00 Mostly Cloudy BKN049 73.4 60.8 65% 30.12 0.0
20 08:55 SE 6 10.00 Fair CLR 71.6 60.8 69% 30.12 0.0
20 08:35 Calm 10.00 Fair CLR 69.8 60.8 73% 30.11 0.0
20 08:15 Calm 10.00 Fair CLR 68 59 73% 30.11 0.0
20 07:55 Calm 10.00 Fair CLR 68 59 73% 30.11 0.0
20 07:35 Calm 10.00 Fair CLR 66.2 60.8 83% 30.11 0.0
20 07:15 Calm 10.00 Fair CLR 62.6 59 88% 30.1 0.0
20 06:55 Calm 10.00 Fair CLR 60.8 59 94% 30.09 0.0
20 06:35 Calm 10.00 Fair CLR 60.8 59 94% 30.09 0.0
20 06:15 Calm 10.00 Fair CLR 60.8 59 94% 30.09 0.0
20 05:55 Calm 10.00 Fair CLR 60.8 59 94% 30.09 0.0
20 05:35 Calm 10.00 Fair CLR 60.8 59 94% 30.09 0.0
20 05:15 Calm 10.00 Fair CLR 60.8 59 94% 30.09 0.0
20 04:35 Calm 10.00 Fair CLR 62.6 59 88% 30.08 0.0
20 04:15 Calm 10.00 Fair CLR 62.6 59 88% 30.07 0.0
20 03:55 Calm 10.00 Fair CLR 62.6 59 88% 30.07 0.0
20 03:35 Calm 10.00 Fair CLR 62.6 59 88% 30.07 0.0
20 03:15 Calm 10.00 Fair CLR 64.4 59 83% 30.06 0.0
20 02:55 Calm 10.00 Fair CLR 64.4 59 83% 30.05 0.0
20 02:35 Calm 10.00 Fair CLR 66.2 59 78% 30.05 0.0
20 02:15 Calm 10.00 Fair CLR 66.2 59 78% 30.05 0.0
20 01:55 E 3 10.00 Fair CLR 66.2 59 78% 30.06 0.0
20 01:35 Calm 10.00 Fair CLR 68 60.8 78% 30.07 0.0
20 01:15 Calm 10.00 Fair CLR 68 60.8 78% 30.07 0.0
20 00:55 Calm 10.00 Fair CLR 68 60.8 78% 30.07 0.0
20 00:35 Calm 10.00 Fair CLR 69.8 60.8 73% 30.07 0.0
20 00:15 E 3 10.00 Fair CLR 69.8 60.8 73% 30.07 0.0
19 23:55 E 3 10.00 Fair CLR 68 60.8 78% 30.07 0.0
19 23:35 Calm 10.00 Partly Cloudy SCT060 68 60.8 78% 30.07 0.0
19 23:15 Calm 10.00 Partly Cloudy SCT060 69.8 60.8 73% 30.08 0.0
19 22:55 Calm 10.00 Fair CLR 71.6 60.8 69% 30.09 0.0
19 22:35 Calm 10.00 Fair CLR 73.4 60.8 65% 30.08 0.0
19 22:15 Calm 10.00 Fair CLR 73.4 60.8 65% 30.08 0.0
19 21:55 Calm 10.00 Partly Cloudy SCT055 75.2 60.8 61% 77 30.07 0.0
19 21:35 Calm 10.00 Overcast OVC055 77 60.8 57% 79 30.07 0.0
19 21:15 Calm 10.00 Overcast BKN055 OVC065 78.8 60.8 54% 80 30.07 0.0
19 20:55 Calm 10.00 Mostly Cloudy BKN065 78.8 60.8 54% 80 30.06 0.0
19 20:35 Calm 10.00 Mostly Cloudy BKN065 80.6 60.8 51% 81 30.05 0.0
19 20:15 Calm 10.00 Overcast OVC065 80.6 60.8 51% 81 30.04 0.0
19 19:55 SE 6 10.00 Overcast OVC065 82.4 59 45% 82 30.04 0.0
19 19:15 Calm 10.00 Overcast OVC070 86 60.8 43% 86 30.03 0.0
19 18:55 SW 3 10.00 Overcast OVC070 86 59 40% 85 30.03 0.0
19 18:35 Calm 10.00 Mostly Cloudy BKN070 86 59 40% 85 30.03 0.0
19 18:15 Calm 10.00 Partly Cloudy SCT070 86 57.2 38% 85 30.03 0.0
19 17:55 Calm 10.00 Mostly Cloudy BKN070 87.8 57.2 35% 87 30.03 0.0
19 17:35 Calm 10.00 Mostly Cloudy BKN070 89.6 57.2 33% 88 30.03 0.0
19 17:15 Calm 10.00 Partly Cloudy SCT070 91.4 57.2 32% 90 30.04 0.0
19 16:55 Calm 10.00 Fair CLR 91.4 59 34% 91 30.04 0.0
19 16:15 Calm 10.00 Partly Cloudy SCT065 91.4 59 34% 91 30.05 0.0
19 15:55 Calm 10.00 Partly Cloudy SCT065 91.4 59 34% 91 30.05 0.0
19 15:35 Calm 10.00 Fair CLR 91.4 59 34% 91 30.07 0.0
19 15:15 Calm 10.00 Fair CLR 91.4 59 34% 91 30.07 0.0
19 14:55 N 3 10.00 Fair CLR 91.4 59 34% 91 30.09 0.0
19 14:35 Calm 10.00 Fair CLR 89.6 57.2 33% 88 30.09 0.0
19 14:15 Calm 10.00 Fair CLR 89.6 59 36% 89 30.1 0.0
19 13:55 Calm 10.00 Fair CLR 89.6 59 36% 89 30.11 0.0
19 13:35 Calm 10.00 Fair CLR 87.8 59 38% 87 30.12 0.0
19 13:15 Calm 10.00 Partly Cloudy SCT055 87.8 59 38% 87 30.12 0.0
19 12:55 Calm 10.00 Fair CLR 86 59 40% 85 30.13 0.0
19 12:35 Calm 10.00 Fair CLR 82.4 59 45% 82 30.14 0.0
19 12:15 Calm 10.00 Fair CLR 84.2 59 43% 84 30.14 0.0
Date Time (cdt) Wind (mph) Vis. (mi.) Weather Sky Cond. Air Dwpt Max. Min. Relative Humidity Wind Chill (°F) Heat Index (°F) altimeter (in) sea level (mb) 1 hr 3 hr 6 hr
6 hour
Temperature (ºF) Pressure Precipitation (in)